Wind_Speed
13 12 10 12 14 14 13 13 11 11 9 9 8 8 8 8 7 7 7 8 9 10 11 11 11 13 13 12 12 11 12 14 13 14 14 13 14 18 21 21 20 21 22
9 11 11 12 15 15 15 14 13 13 11 9 8 9 9 9 8 8 8 8 8 9 11 11 12 13 13 13 13 13 13 14 13 13 14 17 19 23 23 22 22 22 23
11 10 11 13 14 15 16 15 15 14 11 8 7 8 8 9 9 9 9 8 8 9 11 12 12 13 13 13 13 13 14 15 14 16 18 21 24 24 23 23 23 24 24
9 8 10 13 14 15 17 16 16 14 11 10 8 7 6 8 9 10 10 10 10 9 11 12 13 14 13 12 12 13 14 16 17 20 23 25 26 24 24 24 24 25 25
6 8 10 13 15 17 16 16 17 15 12 11 9 9 8 8 9 11 11 10 10 10 11 13 14 15 14 11 12 14 16 18 19 21 25 28 28 26 26 26 26 26 27
8 11 11 13 16 18 18 18 18 15 13 13 11 9 10 9 10 10 10 10 11 12 12 13 14 16 16 13 13 15 17 20 21 22 25 27 26 27 27 28 28 28 28
10 13 14 15 18 18 18 19 17 16 15 14 13 12 11 12 12 12 11 11 10 10 11 13 14 17 18 18 14 17 20 22 21 20 22 24 25 28 28 29 28 28 26
12 16 15 17 19 19 20 20 18 18 16 15 14 13 13 14 14 14 13 13 13 12 12 11 13 18 21 25 18 17 21 20 21 20 22 23 26 28 30 30 29 27 26
14 18 18 18 20 21 21 19 17 16 17 16 15 14 14 14 14 14 14 14 16 16 13 15 16 18 20 25 25 22 21 21 20 18 21 26 28 28 33 34 33 31 29
16 17 18 18 22 23 22 19 18 16 18 18 16 16 16 14 15 16 15 15 16 15 14 16 16 21 27 27 28 27 22 21 19 19 18 18 37 31 43 39 37 29 24
18 19 19 18 20 20 21 18 18 15 17 19 18 17 18 18 18 18 17 16 17 17 16 15 18 23 32 30 28 27 23 20 19 21 20 28 30 36 26 25 25 24 24
21 21 21 19 16 17 20 19 18 16 17 18 18 20 19 17 18 19 18 17 18 17 17 18 24 29 36 28 31 30 25 22 23 25 25 28 30 37 39 38 34 32 31
22 21 19 17 14 17 19 18 14 17 18 19 20 21 19 17 19 18 18 19 19 18 18 26 27 29 32 31 32 27 25 27 29 31 31 29 28 30 32 30 29 27 25
22 26 24 20 21 19 21 18 15 18 18 18 17 16 16 17 13 13 15 18 23 25 26 30 31 34 34 36 34 27 29 29 39 36 33 29 28 26 24 29 28 25 21
20 24 24 25 23 23 24 22 21 18 18 17 18 17 15 15 11 12 15 16 21 26 31 40 42 35 35 36 36 31 33 36 38 36 34 30 26 25 23 20 19 18 18
15 19 22 20 25 24 24 22 21 21 21 20 20 16 14 12 11 12 13 16 19 27 35 38 40 39 37 36 34 31 39 40 35 31 27 23 19 18 17 15 14 13 13
6 18 20 16 26 20 24 22 22 21 22 21 20 16 15 14 12 13 19 20 24 30 42 35 36 35 35 32 35 43 43 41 33 28 23 24 17 13 12 10 13 15 16
7 16 19 20 25 25 24 25 24 24 22 19 18 18 18 17 15 16 24 28 35 39 37 39 38 40 40 42 45 41 37 34 29 22 19 16 18 17 14 16 18 18 20
13 7 12 21 26 17 29 27 25 23 19 18 19 21 20 17 17 15 22 32 35 37 40 43 44 42 47 49 45 39 34 29 25 25 23 22 20 21 20 22 23 20 19
19 12 6 11 12 14 26 27 27 24 19 20 22 24 23 21 20 17 31 42 39 42 42 43 43 50 49 47 43 38 33 28 23 20 20 21 20 19 19 20 21 20 19
19 15 5 6 6 11 19 22 25 28 24 22 25 25 25 25 25 25 27 29 37 41 47 47 53 53 47 44 45 39 33 28 25 22 19 18 18 16 15 14 15 17 19
28 22 11 8 3 6 9 18 20 30 26 25 27 27 28 28 28 30 31 35 40 41 48 49 48 45 40 38 39 38 26 25 24 21 17 17 18 17 16 16 14 13 15
31 28 21 17 10 7 8 13 19 28 30 28 28 29 31 32 31 32 35 39 44 43 44 45 45 44 46 42 38 31 23 11 27 21 19 16 17 17 17 17 16 15 14
35 28 24 19 17 12 9 9 12 17 36 30 32 32 30 32 33 34 36 40 41 46 43 47 49 48 46 49 41 36 22 34 23 17 22 19 17 17 17 17 17 16 15
35 32 27 22 19 16 12 13 10 18 29 32 32 31 29 33 35 36 37 44 48 47 49 55 54 50 46 46 43 40 27 32 34 39 34 29 25 21 19 18 18 17 16
34 31 28 23 19 16 14 13 13 14 20 36 36 34 32 33 37 36 38 41 45 49 55 56 53 46 44 40 34 32 32 31 34 32 29 30 26 23 22 20 18 17 16
Wind_Direction
173 165 176 187 193 198 197 185 179 173 173 179 185 195 199 193 192 189 186 174 172 171 175 173 172 172 180 177 173 169 172 182 177 173 174 177 169 158 154 151 145 139 137
195 170 179 192 192 196 195 183 177 176 179 177 190 200 203 204 205 198 189 183 179 180 182 177 178 178 183 184 183 191 195 195 185 180 176 166 162 158 154 151 147 140 138
178 184 184 195 194 197 191 185 181 177 181 187 197 197 200 206 208 202 195 191 189 189 192 183 182 185 184 187 189 190 188 195 190 179 174 164 161 158 153 150 146 142 140
162 183 193 196 198 197 190 186 184 188 191 197 200 193 207 208 211 209 203 199 194 198 195 190 188 186 185 182 179 175 171 170 171 170 167 163 159 155 151 148 145 143 140
185 196 198 198 198 196 191 190 191 195 200 207 209 212 210 208 209 208 202 199 197 193 195 192 192 190 181 177 173 170 164 165 166 167 167 163 158 156 153 149 145 143 140
231 204 204 202 197 196 194 194 198 202 208 212 213 217 214 209 208 205 198 196 200 197 193 197 194 196 189 172 175 169 165 162 165 168 171 165 161 154 154 151 146 141 138
244 214 205 202 200 199 196 197 203 209 214 214 216 220 219 214 210 209 206 206 202 192 190 194 197 196 184 170 172 169 164 170 175 172 176 168 165 157 155 150 145 141 137
245 216 207 203 199 200 201 200 206 215 217 215 219 220 220 216 219 217 211 203 195 182 184 185 193 200 192 173 163 177 173 179 176 181 182 175 173 164 158 152 147 143 137
226 217 212 209 202 203 205 208 213 216 218 214 216 219 219 220 222 220 215 215 215 211 217 216 204 199 193 166 166 185 191 188 179 178 182 182 173 162 153 147 141 135 130
224 223 224 222 206 204 206 213 221 222 215 215 216 218 220 221 227 227 229 226 224 215 214 203 199 195 187 170 176 183 195 191 184 175 169 189 167 147 170 142 137 136 133
215 234 232 226 222 212 211 217 223 221 214 215 216 218 220 222 225 223 225 231 233 224 221 202 195 185 180 170 174 184 195 186 182 170 157 132 111 154 137 147 145 146 151
205 223 232 234 224 219 218 219 224 219 211 212 214 220 224 223 227 227 222 226 231 226 222 209 198 193 179 179 181 185 197 188 168 162 150 136 129 137 138 141 143 145 148
213 218 217 225 231 225 217 214 218 209 208 212 217 223 225 224 229 228 221 220 220 204 199 185 180 184 183 180 173 175 184 170 156 147 146 146 140 139 140 145 147 149 150
233 229 217 209 220 225 223 223 226 205 206 212 208 214 216 224 224 210 206 210 213 201 194 190 180 173 179 178 178 174 168 164 144 140 132 148 141 142 148 148 150 154 156
243 236 222 216 216 222 217 219 230 201 192 198 194 207 220 227 209 206 214 215 201 200 192 191 190 179 180 181 180 174 169 161 145 140 134 143 140 142 145 148 155 163 170
224 228 237 221 222 222 223 226 227 203 198 206 206 215 215 207 201 211 202 208 205 199 195 188 173 161 155 162 162 165 164 161 158 155 148 150 153 156 159 165 179 181 181
144 211 209 224 212 215 221 222 219 210 206 215 216 205 200 190 195 192 181 183 183 188 170 168 173 176 164 167 161 161 154 158 154 153 154 150 147 165 163 155 148 139 133
118 196 204 206 219 224 228 220 216 216 217 221 206 195 189 188 191 192 177 164 172 168 166 169 165 162 158 156 156 153 152 154 143 139 142 151 146 139 134 139 131 131 125
38 149 197 196 208 216 215 219 218 219 220 209 204 185 182 188 189 197 183 189 177 156 157 162 163 172 162 146 141 139 137 136 136 137 135 142 149 160 160 141 134 133 126
20 46 135 194 194 203 195 217 223 230 224 213 200 192 193 191 188 184 172 168 178 172 170 176 174 157 152 149 143 138 135 135 135 135 137 140 145 150 150 148 146 135 129
15 27 68 195 179 213 183 185 215 217 218 213 201 200 196 197 198 197 191 187 184 179 177 178 165 160 153 152 145 132 129 132 139 145 153 155 156 154 154 150 152 150 141
12 7 24 15 282 228 227 184 188 215 219 220 208 205 206 208 207 203 201 190 182 178 170 167 170 162 163 164 155 142 125 134 140 143 153 164 166 168 168 164 160 152 153
13 9 4 358 353 309 271 223 196 207 212 211 213 213 214 213 211 208 203 198 192 190 187 188 191 191 179 176 174 165 142 158 145 152 164 175 174 174 177 177 173 170 170
10 7 2 351 349 319 312 244 209 192 203 209 221 215 217 208 206 208 206 205 206 200 204 200 197 194 190 176 175 174 165 170 156 155 173 179 184 186 187 179 182 181 184
13 10 2 355 343 323 318 279 244 210 209 217 222 222 217 203 202 204 208 207 204 207 204 195 190 191 189 183 180 170 174 184 181 173 175 183 183 189 193 194 191 188 186
12 14 9 2 354 338 308 298 256 232 210 211 214 219 217 205 200 201 205 209 208 207 198 201 191 191 187 183 181 184 182 178 187 189 179 179 184 184 191 195 197 195 193
Height
1476 1478 1480 1482 1484 1487 1489 1491 1493 1495 1497 1499 1501 1502 1504 1505 1507 1509 1510 1511 1512 1514 1516 1517 1519 1521 1523 1524 1525 1527 1528 1530 1531 1532 1534 1535 1537 1538 1540 1542 1543 1545 1547
1476 1477 1479 1481 1483 1485 1488 1490 1492 1495 1497 1499 1501 1502 1503 1504 1506 1508 1510 1511 1512 1513 1515 1517 1519 1521 1522 1523 1524 1527 1527 1529 1531 1532 1534 1536 1537 1539 1541 1542 1544 1546 1548
1474 1476 1478 1480 1482 1484 1487 1489 1491 1494 1496 1498 1500 1501 1502 1504 1505 1507 1509 1510 1512 1513 1515 1516 1518 1520 1522 1523 1524 1526 1527 1529 1530 1532 1533 1535 1537 1539 1542 1544 1545 1547 1550
1474 1476 1477 1479 1481 1483 1485 1487 1490 1493 1495 1497 1498 1500 1502 1503 1504 1506 1508 1509 1510 1512 1514 1516 1517 1520 1521 1524 1525 1526 1527 1528 1530 1532 1534 1536 1538 1541 1543 1545 1547 1549 1551
1473 1475 1476 1478 1479 1482 1484 1486 1489 1491 1493 1495 1496 1498 1501 1502 1503 1504 1506 1508 1509 1510 1512 1515 1517 1519 1522 1524 1525 1527 1528 1529 1532 1534 1534 1536 1538 1541 1544 1546 1549 1550 1552
1472 1473 1475 1476 1477 1480 1482 1484 1487 1490 1492 1493 1494 1497 1499 1501 1502 1503 1504 1506 1507 1508 1511 1513 1516 1519 1521 1524 1526 1527 1528 1530 1532 1534 1536 1537 1540 1542 1545 1548 1550 1553 1554
1469 1471 1472 1473 1475 1478 1480 1482 1485 1488 1490 1491 1492 1494 1497 1499 1500 1501 1503 1504 1506 1508 1510 1512 1515 1517 1520 1522 1526 1527 1529 1531 1532 1535 1537 1540 1542 1544 1546 1549 1552 1555 1557
1466 1468 1470 1471 1473 1475 1477 1479 1483 1485 1486 1489 1490 1492 1495 1496 1498 1498 1500 1502 1504 1507 1509 1511 1513 1516 1518 1521 1524 1530 1531 1532 1533 1536 1538 1541 1542 1544 1547 1549 1552 1556 1558
1464 1466 1467 1469 1471 1473 1475 1477 1479 1481 1483 1485 1487 1490 1492 1494 1496 1498 1499 1500 1502 1504 1507 1509 1512 1514 1517 1519 1522 1529 1532 1533 1533 1535 1538 1540 1542 1545 1547 1550 1553 1556 1560
1461 1465 1466 1467 1468 1470 1472 1474 1476 1478 1479 1481 1484 1487 1489 1491 1494 1495 1495 1498 1499 1502 1504 1508 1510 1512 1515 1518 1520 1525 1532 1533 1535 1536 1538 1535 1528 1535 1543 1548 1552 1556 1559
1460 1462 1465 1465 1466 1468 1470 1472 1474 1476 1476 1478 1481 1483 1485 1487 1490 1492 1493 1494 1496 1499 1502 1506 1508 1511 1514 1517 1520 1524 1532 1533 1535 1536 1539 1539 1527 1536 1543 1545 1553 1555 1557
1459 1459 1460 1462 1464 1466 1468 1470 1471 1473 1475 1476 1478 1479 1481 1484 1486 1489 1489 1491 1494 1496 1500 1502 1505 1507 1511 1514 1519 1523 1530 1533 1534 1537 1540 1542 1543 1546 1549 1552 1556 1560 1562
1458 1459 1458 1458 1461 1463 1464 1467 1468 1469 1471 1473 1475 1476 1477 1481 1483 1485 1486 1487 1490 1493 1497 1499 1502 1505 1509 1512 1517 1521 1529 1532 1534 1537 1541 1541 1545 1548 1551 1555 1558 1562 1564
1453 1456 1458 1459 1460 1461 1463 1465 1467 1467 1468 1469 1471 1474 1474 1476 1479 1482 1481 1482 1486 1490 1494 1496 1500 1503 1508 1511 1516 1522 1527 1530 1534 1536 1539 1543 1548 1550 1552 1556 1559 1563 1566
1451 1451 1456 1458 1458 1459 1460 1462 1464 1465 1467 1467 1469 1471 1472 1474 1477 1479 1478 1479 1482 1486 1490 1491 1497 1500 1506 1511 1515 1522 1526 1530 1533 1536 1538 1542 1547 1550 1553 1556 1559 1563 1566
1446 1449 1455 1455 1456 1458 1458 1459 1461 1463 1465 1465 1466 1468 1469 1473 1474 1476 1475 1476 1478 1483 1487 1490 1494 1499 1503 1508 1513 1521 1526 1530 1533 1537 1540 1543 1548 1552 1554 1555 1559 1562 1564
1440 1444 1445 1452 1453 1453 1454 1456 1457 1460 1463 1463 1464 1466 1467 1471 1473 1474 1474 1476 1477 1481 1484 1489 1495 1501 1505 1510 1516 1520 1523 1527 1532 1537 1541 1544 1550 1552 1554 1557 1560 1562 1565
1436 1439 1441 1444 1447 1451 1450 1452 1455 1456 1459 1461 1463 1464 1466 1469 1472 1474 1475 1476 1477 1480 1484 1488 1494 1500 1504 1509 1515 1520 1524 1529 1532 1538 1542 1546 1547 1552 1556 1559 1561 1563 1566
1432 1434 1437 1437 1440 1441 1446 1449 1452 1454 1458 1459 1462 1463 1466 1468 1471 1472 1473 1477 1479 1484 1488 1491 1492 1499 1503 1509 1513 1521 1525 1527 1534 1542 1542 1547 1550 1554 1556 1560 1562 1564 1566
1432 1431 1433 1434 1435 1437 1438 1445 1449 1452 1455 1457 1459 1462 1465 1468 1471 1473 1473 1474 1478 1481 1487 1491 1494 1499 1503 1507 1513 1520 1525 1532 1537 1542 1546 1550 1553 1557 1559 1561 1562 1565 1568
1433 1428 1429 1430 1431 1435 1436 1441 1443 1447 1451 1455 1457 1460 1463 1467 1470 1473 1476 1477 1478 1479 1484 1489 1492 1494 1502 1509 1510 1520 1528 1536 1540 1545 1548 1552 1556 1558 1561 1563 1565 1566 1568
1433 1430 1427 1429 1429 1432 1435 1433 1437 1443 1447 1452 1455 1458 1461 1464 1467 1471 1474 1477 1480 1482 1485 1488 1492 1495 1503 1508 1512 1517 1528 1539 1540 1545 1550 1554 1556 1558 1561 1564 1567 1569 1571
1433 1429 1426 1426 1427 1429 1431 1432 1432 1440 1441 1445 1450 1453 1456 1460 1464 1468 1472 1474 1477 1481 1482 1487 1490 1493 1497 1505 1510 1512 1525 1532 1537 1545 1550 1556 1558 1559 1561 1564 1567 1569 1572
1436 1431 1426 1427 1423 1426 1428 1428 1432 1432 1436 1439 1444 1448 1452 1455 1459 1464 1468 1472 1476 1477 1479 1483 1487 1490 1493 1498 1506 1511 1515 1520 1528 1542 1549 1554 1558 1559 1561 1563 1566 1568 1571
1438 1431 1427 1423 1425 1426 1425 1428 1426 1429 1433 1435 1437 1443 1448 1451 1454 1459 1464 1467 1469 1473 1476 1478 1483 1487 1492 1496 1502 1506 1514 1521 1525 1528 1538 1547 1552 1557 1559 1561 1564 1566 1569
1444 1437 1433 1429 1427 1427 1425 1426 1424 1424 1427 1430 1430 1436 1441 1446 1450 1454 1459 1463 1466 1468 1470 1475 1479 1485 1492 1498 1503 1507 1509 1512 1520 1525 1532 1541 1548 1552 1556 1558 1561 1563 1567